Weather History for Springfield, OH

Change the Weather History Date:

Tuesday, February 19, 2013

  Actual Average (KDAY) Record (KDAY)
Temperature  
Mean Temperature 30 °F 32 °F  
Max Temperature 42 °F 40 °F 70 °F (1939)
Min Temperature 19 °F 24 °F -11 °F (1910)
Degree Days  
Heating Degree Days 34 33  
Month to date heating degree days 667  
Since 1 July heating degree days 3990  
Cooling Degree Days 0 0  
Month to date cooling degree days 0  
Year to date cooling degree days 0  
Moisture  
Dew Point 22 °F    
Average Humidity 79    
Maximum Humidity 100    
Minimum Humidity 63    
Precipitation  
Precipitation 0.16 in 0.08 in 1.07 in (1938)
Month to date precipitation 1.51  
Year to date precipitation 4.22  
Snow  
Snow 0.00 in 0.20 in 3.90 in (1929)
Month to date snowfall 4.1  
Since 1 July snowfall 17.5  
Snow Depth -    
Sea Level Pressure  
Sea Level Pressure 29.85 in    
Wind  
Wind Speed 20 mph (WSW)    
Max Wind Speed 30 mph    
Max Gust Speed 41 mph    
Visibility 4 miles    
Events Rain , Snow    
T = Trace of Precipitation, MM = Missing Value Source: NWS Daily Summary

Daily Weather History Graph

Daily Weather History Graph

Search for Another Location

Airport:

Trip Planner

Search our weather history database for the weather conditions in past years. The results will help you decide how hot, cold, wet, or windy it might be!

Date:

Astronomy

Feb. 19, 2013 Rise Set
Actual Time 7:22 AM EST 6:16 PM EST
Civil Twilight 6:54 AM EST 6:43 PM EST
Nautical Twilight 6:23 AM EST 7:15 PM EST
Astronomical Twilight 5:52 AM EST 7:46 PM EST
Moon 12:47 PM EST (2/19) 2:53 AM EST (2/19)
Length of Visible Light 11h 48m
Length of Day
10h 54m
Waxing Gibbous, 67% of the Moon is Illuminated
Feb 19
Waxing Gibbous
Feb 25
Full
Mar 4
Last Quarter
Mar 11
New
Mar 19
First Quarter

Hourly Weather History & Observations

Time (EST) Temp. Windchill Dew Point Humidity Pressure Visibility Wind Dir Wind Speed Gust Speed Precip Events Conditions
12:04 AM 42.8 °F 35.1 °F 35.6 °F 76% 29.75 in 4.0 mi SSW 16.1 mph 27.6 mph 0.01 in Rain Light Rain
12:56 AM 41.9 °F 32.8 °F 36.0 °F 79% 29.73 in 6.0 mi South 20.7 mph 32.2 mph 0.05 in   Haze
1:42 AM 42.8 °F 32.9 °F 35.6 °F 76% 29.68 in 6.0 mi South 26.5 mph 39.1 mph 0.00 in   Haze
1:56 AM 41.0 °F 31.9 °F 36.0 °F 82% 29.68 in 7.0 mi South 19.6 mph 34.5 mph 0.00 in   Overcast
2:25 AM 41.0 °F 31.4 °F 35.6 °F 81% 29.67 in 5.0 mi South 21.9 mph 35.7 mph 0.00 in Rain Light Rain
2:56 AM 41.0 °F 31.9 °F 36.0 °F 82% 29.67 in 9.0 mi SSW 19.6 mph 29.9 mph 0.00 in   Overcast
3:56 AM 41.0 °F 32.8 °F 36.9 °F 85% 29.64 in 7.0 mi SSW 16.1 mph 29.9 mph 0.00 in   Overcast
4:23 AM 41.0 °F 31.9 °F 37.4 °F 87% 29.64 in 4.0 mi SSW 19.6 mph 28.8 mph 0.00 in Rain Light Rain
4:56 AM 41.0 °F 31.9 °F 37.9 °F 89% 29.65 in 3.0 mi SSW 19.6 mph 27.6 mph 0.00 in Rain Light Rain
5:02 AM 41.0 °F 31.1 °F 37.4 °F 87% 29.64 in 2.5 mi SW 23.0 mph 27.6 mph 0.01 in Rain Light Rain
5:09 AM 35.6 °F 24.8 °F 33.8 °F 93% 29.68 in 1.8 mi West 19.6 mph 33.4 mph 0.04 in Rain Heavy Rain
5:16 AM 33.8 °F 23.2 °F 30.2 °F 87% 29.68 in 2.5 mi West 17.3 mph - 0.05 in Rain Rain
5:27 AM 32.0 °F 21.6 °F 30.2 °F 93% 29.69 in 3.0 mi West 15.0 mph - 0.06 in Snow Light Snow
5:42 AM 32.0 °F 21.6 °F 30.2 °F 93% 29.69 in 1.8 mi West 15.0 mph - 0.07 in Snow Light Snow
5:45 AM 30.2 °F 19.8 °F 28.4 °F 93% 29.70 in 1.0 mi West 13.8 mph - 0.07 in Snow Light Snow
5:49 AM 30.2 °F 19.8 °F 28.4 °F 93% 29.70 in 0.8 mi West 13.8 mph - 0.07 in Snow Light Snow
5:56 AM 31.1 °F 20.1 °F 29.1 °F 92% 29.72 in 0.8 mi WSW 16.1 mph - 0.08 in Snow Light Snow
6:05 AM 30.2 °F 18.9 °F 30.2 °F 100% 29.71 in 1.2 mi West 16.1 mph - 0.00 in Snow Light Snow
6:09 AM 30.2 °F 18.1 °F 30.2 °F 100% 29.71 in 2.0 mi West 18.4 mph 25.3 mph 0.00 in Snow Light Snow
6:16 AM 30.2 °F 18.1 °F 30.2 °F 100% 29.71 in 5.0 mi West 18.4 mph - 0.01 in Snow Light Snow
6:56 AM 31.1 °F 18.3 °F 28.0 °F 88% 29.75 in 6.0 mi West 21.9 mph 27.6 mph 0.03 in   Overcast
7:56 AM 29.1 °F 16.0 °F 23.0 °F 78% 29.79 in 7.0 mi West 20.7 mph 29.9 mph N/A   Overcast
8:56 AM 27.1 °F 13.8 °F 21.0 °F 78% 29.82 in 7.0 mi WSW 19.6 mph 27.6 mph N/A   Overcast
9:56 AM 27.1 °F 14.9 °F 21.0 °F 78% 29.83 in 6.0 mi West 16.1 mph 27.6 mph 0.00 in   Haze
10:35 AM 26.6 °F 13.4 °F 21.2 °F 80% 29.82 in 2.5 mi WSW 18.4 mph - 0.00 in Snow Light Snow
10:43 AM 26.6 °F 12.7 °F 21.2 °F 80% 29.82 in 3.0 mi West 20.7 mph 25.3 mph 0.00 in   Haze
10:56 AM 27.1 °F 14.1 °F 21.0 °F 78% 29.86 in 3.0 mi West 18.4 mph - 0.00 in Snow Light Snow
11:56 AM 25.2 °F 12.0 °F 19.0 °F 78% 29.87 in 5.0 mi West 17.3 mph 26.5 mph 0.00 in Snow Light Snow
12:24 PM 24.8 °F 11.9 °F 19.4 °F 80% 29.84 in 2.5 mi West 16.1 mph 25.3 mph 0.00 in Snow Light Snow
12:34 PM 24.8 °F 8.7 °F 19.4 °F 80% 29.83 in 3.0 mi WSW 26.5 mph 31.1 mph 0.00 in Snow Light Snow
12:56 PM 25.2 °F 8.6 °F 16.2 °F 69% 29.87 in 8.0 mi West 28.8 mph 41.4 mph 0.00 in   Overcast
1:56 PM 25.2 °F 9.2 °F 17.1 °F 71% 29.88 in 4.0 mi West 26.5 mph 33.4 mph 0.00 in   Haze
2:26 PM 24.8 °F 9.6 °F 17.6 °F 74% 29.86 in 3.0 mi West 23.0 mph 28.8 mph 0.00 in   Haze
2:48 PM 24.8 °F 8.1 °F 17.6 °F 74% 29.86 in 2.5 mi West 28.8 mph 33.4 mph 0.00 in   Haze
2:56 PM 25.2 °F 9.2 °F 18.1 °F 75% 29.90 in 1.8 mi WSW 26.5 mph 36.8 mph 0.00 in Snow Light Snow
2:59 PM 24.8 °F 8.1 °F 17.6 °F 74% 29.87 in 2.5 mi West 28.8 mph 36.8 mph N/A   Haze
3:04 PM 24.8 °F 7.9 °F 17.6 °F 74% 29.88 in 4.0 mi West 29.9 mph 36.8 mph N/A   Haze
3:56 PM 24.1 °F 8.0 °F 16.2 °F 72% 29.93 in 6.0 mi West 25.3 mph 29.9 mph 0.00 in   Haze
4:09 PM 24.8 °F 8.4 °F 15.8 °F 69% 29.91 in 2.5 mi West 27.6 mph 33.4 mph 0.00 in   Haze
4:20 PM 24.8 °F 9.6 °F 17.6 °F 74% 29.92 in 2.0 mi West 23.0 mph 31.1 mph 0.00 in Snow Light Snow
4:37 PM 23.0 °F 6.9 °F 17.6 °F 80% 29.92 in 1.5 mi West 24.2 mph 33.4 mph 0.00 in Snow Light Snow
4:41 PM 24.8 °F 10.7 °F 15.8 °F 69% 29.93 in 3.0 mi West 19.6 mph 31.1 mph 0.00 in   Haze
4:56 PM 23.0 °F 8.3 °F 17.1 °F 78% 29.96 in 3.0 mi West 19.6 mph 28.8 mph 0.00 in Snow Light Snow
5:06 PM 23.0 °F 6.9 °F 17.6 °F 80% 29.94 in 3.0 mi West 24.2 mph 31.1 mph 0.00 in Snow Light Snow
5:08 PM 23.0 °F 5.7 °F 17.6 °F 80% 29.94 in 1.8 mi West 28.8 mph 33.4 mph 0.00 in Snow Light Snow
5:13 PM 23.0 °F 5.4 °F 17.6 °F 80% 29.94 in 1.0 mi West 29.9 mph 38.0 mph 0.00 in   Haze
5:20 PM 23.0 °F 8.0 °F 15.8 °F 74% 29.95 in 1.5 mi West 20.7 mph 38.0 mph 0.00 in   Haze
5:29 PM 23.0 °F 8.0 °F 14.0 °F 68% 29.96 in 7.0 mi West 20.7 mph 28.8 mph 0.00 in   Overcast
5:56 PM 23.0 °F 9.2 °F 15.1 °F 72% 30.01 in 6.0 mi West 17.3 mph 24.2 mph 0.00 in Snow Light Snow
6:17 PM 23.0 °F 8.7 °F 15.8 °F 74% 29.98 in 3.0 mi West 18.4 mph 26.5 mph 0.00 in Snow Light Snow
7:24 PM 21.2 °F 3.3 °F 14.0 °F 74% 30.02 in 1.8 mi West 28.8 mph 35.7 mph 0.00 in Snow Light Snow
7:28 PM 21.2 °F 3.3 °F 12.2 °F 68% 30.02 in 3.0 mi West 28.8 mph 35.7 mph 0.00 in Snow Light Snow
7:42 PM 21.2 °F 4.5 °F 10.4 °F 63% 30.02 in 9.0 mi West 24.2 mph 34.5 mph 0.00 in   Overcast
7:56 PM 21.0 °F 3.9 °F 12.0 °F 68% 30.07 in 9.0 mi West 25.3 mph 31.1 mph 0.00 in   Overcast
8:56 PM 20.1 °F 4.6 °F 12.0 °F 71% 30.08 in 7.0 mi West 19.6 mph - 0.00 in   Overcast
9:56 PM 20.1 °F 3.8 °F 10.0 °F 65% 30.09 in 9.0 mi West 21.9 mph 28.8 mph 0.00 in   Overcast
10:56 PM 20.1 °F 5.9 °F 12.0 °F 71% 30.10 in 7.0 mi West 16.1 mph - 0.00 in Snow Light Snow
11:49 PM 19.4 °F 6.0 °F 12.2 °F 74% 30.06 in 5.0 mi WNW 13.8 mph - 0.00 in Snow Light Snow
11:56 PM 19.0 °F 5.0 °F 13.1 °F 78% 30.11 in 8.0 mi West 15.0 mph - 0.00 in   Overcast